ERBS 
1 15354U 84108B   03021.62398124  .00002330  00000-0  14837-3 0  3695
2 15354  56.9901  68.3545 0042163 111.3177 249.2373 15.12003833997807
SL-8 R/B 
1 15483U 85006B   03021.77469997  .00000391  00000-0  14702-3 0  1772
2 15483  74.0443 276.9460 0018735 115.2987 245.0104 14.34733122941781
COSMOS 1656 
1 15772U 85042D   03022.19111229  .00000167  00000-0  99556-4 0  3765
2 15772  71.1052 266.5519 0037355 293.7304  65.9906 14.20442834914343
COSMOS 1674 
1 15945U 85069B   03021.97146943  .00000754  00000-0  92394-4 0  3925
2 15945  82.5237   9.6797 0020047 335.0924  24.9308 14.81770971941577
COSMOS 1689 
1 16111U 85090B   03022.00465100  .00004936  00000-0  27914-3 0   916
2 16111  97.7191   6.3390 0042097 125.1372 235.3807 15.12791262942469
COSMOS 1697 
1 16182U 85097B   03022.32210003 -.00000047  00000-0  57649-6 0  2852
2 16182  71.0023 270.2803 0008285 179.5078 180.6054 14.15794227891650
COSMOS 1726 
1 16496U 86006B   03021.69463521  .00000606  00000-0  73359-4 0  2792
2 16496  82.5250 248.7872 0021369 114.8629 245.4804 14.81874674917790
SL-14 R/B 
1 16792U 86046B   03021.81541966  .00000697  00000-0  86640-4 0  1885
2 16792  82.4828 102.5342 0024055 304.0846  55.8083 14.81010668895801
COSMOS 1766 
1 16882U 86055B   03021.77337405  .00000688  00000-0  85604-4 0  1879
2 16882  82.5215 108.1922 0022553  69.8385 290.5250 14.80945935888824
COSMOS 1812 
1 17295U 87003A   03021.90543418  .00003569  00000-0  29516-3 0  4031
2 17295  82.5237 197.8427 0015610  47.1770 313.0762 14.98559728867900
COSMOS 1825 
1 17567U 87024B   03021.69722402  .00000565  00000-0  68767-4 0   945
2 17567  82.5286  72.9209 0021340  31.5213 328.7277 14.81523466857100
COSMOS 1833 
1 17589U 87027A   03021.64829061 -.00000306  00000-0 -13889-3 0  5467
2 17589  70.9126  78.4659 0005948  24.7608 335.3797 14.12689250817336
COSMOS 1833 
1 17590U 87027B   03021.64750861  .00000011  00000-0  29439-4 0  3198
2 17590  70.9987  63.3682 0003613  29.2598 330.8727 14.16361342819188
SL-14 R/B 
1 17912U 87038B   03021.82112436  .00000721  00000-0  90213-4 0   663
2 17912  82.5028 296.4742 0018959 240.9066 119.0241 14.80839121848757
COSMOS 1844 
1 17973U 87041A   03021.90668883 -.00000170  00000-0 -64171-4 0  5631
2 17973  70.8958 194.7446 0028891  95.1206 265.3211 14.13545436809689
COSMOS 1862 
1 18153U 87055B   03021.95086915  .00000722  00000-0  89655-4 0   711
2 18153  82.4989 353.4077 0024522  97.3112 263.0876 14.81058084839288
COSMOS 1867 
1 18187U 87060A   03021.94524631  .00000047  00000-0  56031-4 0    87
2 18187  65.0061 185.4383 0019273 258.3370 101.5549 14.30714584811379
COSMOS 1908 
1 18749U 88001B   03022.51336965  .00000654  00000-0  81172-4 0   710
2 18749  82.5145 183.8949 0019716 334.5156  25.5076 14.81009913811505
COSMOS 1933 
1 18958U 88020A   03021.30500913  .00002704  00000-0  24922-3 0  6336
2 18958  82.5319  97.4939 0015472  40.8593 319.3802 14.94258417803945
COSMOS 1939 
1 19046U 88032B   03021.93284975  .00002535  00000-0  24508-3 0  3771
2 19046  97.8650 356.4918 0039114 285.6626  74.0257 14.93164802785627
COSMOS 1943 
1 19120U 88039B   03021.77821476  .00000204  00000-0  12175-3 0  6700
2 19120  71.0145 272.4546 0024059 322.4447  37.4999 14.18399766760298
COSMOS 1953 
1 19210U 88050A   03021.54217083  .00002797  00000-0  26243-3 0   446
2 19210  82.5204  37.4038 0018997  21.0543 339.1446 14.93520923790116
COSMOS 1954 
1 19257U 88053B   03021.84337087  .00000510  00000-0  18452-3 0   130
2 19257  74.0462 153.6670 0021560 268.3246  91.5434 14.35878119763393
COSMOS 1975 
1 19573U 88093A   03021.93792836  .00002600  00000-0  24674-3 0  8269
2 19573  82.5253 337.0936 0020135  25.0321 335.1864 14.93022105772752
COSMOS 1975 
1 19574U 88093B   03021.94053113  .00000664  00000-0  82102-4 0   787
2 19574  82.5299  13.5549 0023254 142.1982 218.0878 14.81098671770343
COSMOS 1980 
1 19650U 88102B   03021.80316685 -.00000018  00000-0  15437-4 0  2967
2 19650  71.0001 272.4658 0016062 263.9025  96.0268 14.15382010731588
INTERCOSMOS 
1 20261U 89080A   03021.93187122  .00000593  00000-0  18132-3 0  1846
2 20261  82.5930 167.3099 1219204 307.5115  42.1077 12.52252271606727
INTERCOSMOS 
1 20262U 89080C   03021.87764956  .00000244  00000-0  71019-4 0  1911
2 20262  82.5910 180.0157 1244742 351.5628   6.6130 12.47233917605584
COBE R/B 
1 20323U 89089B   03021.92978101  .00000669  00000-0  19080-3 0  8213
2 20323  97.0649  22.3126 0075954  38.1574 322.4961 14.45951439694035
COSMOS 2053 
1 20390U 89100B   03022.53613709  .00059839  00000-0  29247-3 0  6104
2 20390  73.4931  62.5032 0007695 304.2852  55.7472 15.81997729730123
DELTA 2 R/B1
1 20453U 90008B   03022.31244422  .00003693  00000-0  30510-3 0  6899
2 20453  35.6344 356.9771 0412104 173.2453 187.4031 14.50352087676970
COSMOS 2058 
1 20465U 90010A   03021.59329200  .00002286  00000-0  24282-3 0  5190
2 20465  82.4938 222.1186 0017428 225.4998 134.4782 14.88515792700811
COSMOS 2058 
1 20466U 90010B   03021.71449134  .00000617  00000-0  79744-4 0  6791
2 20466  82.4999 245.8107 0020320 311.0406  48.9048 14.79288154699343
OKEAN 2 R/B 
1 20511U 90018B   03021.91297588  .00000648  00000-0  86327-4 0  6931
2 20511  82.5228 164.2152 0019914  53.8571 306.4477 14.78032248694618
HST 
1 20580U 90037B   03021.97654544  .00002751  00000-0  21586-3 0  3044
2 20580  28.4653 217.3070 0004036 339.1015 147.0296 14.97704239498499
COSMOS 2082 
1 20625U 90046B   03021.64269910 -.00000183  00000-0 -71117-4 0  7372
2 20625  70.9938  26.2890 0015295 184.4315 175.6674 14.14203315654003
COSMOS 2084 
1 20663U 90055A   03021.96118047  .00002483  00000-0  30711-3 0   227
2 20663  62.7993   3.7912 0087829   5.7643 354.4428 14.82732107677809
COSMOS 2084 
1 20666U 90055D   03021.91888239  .00002498  00000-0  29290-3 0  8888
2 20666  62.7842 312.4013 0102322  23.4313 337.1384 14.83968116678693
COSMOS 2098 
1 20775U 90078B   03021.93739896  .00006430  00000-0  40119-3 0  8164
2 20775  82.9441 223.3355 0791149  66.5016 301.7211 13.83583149610590
COSMOS 2106 
1 20967U 90104B   03021.93079736  .00012388  00000-0  20579-3 0  1167
2 20967  82.4914 216.0245 0006638 159.0924 201.0598 15.51904800676475
INFORMATOR 1
1 21088U 91006B   03022.20273603  .00000132  00000-0  11891-3 0  7712
2 21088  82.9426 328.5816 0021225 280.7444  79.1322 13.76568727601829
OKEAN 3 
1 21397U 91039A   03021.62224136  .00001906  00000-0  22102-3 0  9082
2 21397  82.5190  59.9601 0021621  67.0420 293.3076 14.84787240627505
COSMOS 2151 
1 21422U 91042A   03022.45751654  .00001891  00000-0  21698-3 0  2734
2 21422  82.5003 182.8075 0017097 116.8193 243.4777 14.85279612626187
COSMOS 2151 
1 21423U 91042B   03021.95646605  .00000681  00000-0  91523-4 0  4999
2 21423  82.4943 188.7137 0017723 167.3288 192.8373 14.77823955625269
ERS-1 
1 21574U 91050A   03021.96277927  .00000295  00000-0  11729-3 0  6265
2 21574  98.4458  96.3878 0033758 220.2985 139.5698 14.35256630602626
ERS-1 R/B 
1 21610U 91050F   03021.92676615  .00000803  00000-0  27883-3 0  4080
2 21610  98.3168 343.7571 0003246 133.4658 226.6790 14.38121542603385
UARS 
1 21701U 91063B   03021.69128571  .00001106  00000-0  10088-3 0  8059
2 21701  56.9792 144.8794 0005715 115.3623 244.7953 15.02798822621521
INTERCOSMOS 
1 21819U 91086A   03021.91164791  .00003222  00000-0  63916-3 0  8557
2 21819  82.5559 321.8180 1563165  37.1166 332.8307 11.96208465481338
INTERCOSMOS 
1 21820U 91086B   03021.90372503  .00000950  00000-0  18583-3 0  4539
2 21820  82.5614 330.9232 1593783  67.3524 308.7958 11.89623058480438
COSMOS 2180 
1 21876U 92008B   03022.55277908  .00000172  00000-0  16339-3 0  5062
2 21876  82.9247  64.8639 0034290 314.7774  45.0599 13.75165479548383
COSMOS 2184 
1 21938U 92020B   03021.82232123  .00000088  00000-0  76375-4 0  5359
2 21938  82.9290 304.5984 0030643 102.0157 258.4428 13.74900187540361
COSMOS 2219 
1 22220U 92076B   03021.95091573  .00000090  00000-0  69863-4 0  3187
2 22220  70.9969 327.2896 0012178 356.9956   3.1094 14.15955697526056
COSMOS 2227 
1 22285U 92093B   03021.67443508  .00000004  00000-0  26588-4 0  3435
2 22285  71.0201  83.4759 0006245 228.9264 131.1315 14.14557110518523
COSMOS 2228 
1 22286U 92094A   03022.18492419  .00001682  00000-0  21174-3 0  7116
2 22286  82.5209 264.1830 0021889 195.2830 164.7730 14.81334714542418
COSMOS 2237 
1 22566U 93016B   03021.88241341  .00000324  00000-0  19339-3 0  2616
2 22566  71.0070 304.0484 0011720 218.2958 141.7333 14.14531601507322
COSMOS 2242 
1 22626U 93024A   03021.84523452  .00001727  00000-0  21725-3 0  5482
2 22626  82.5245 292.2437 0020316 198.0617 161.9878 14.81399243525960
COSMOS 2263 
1 22803U 93059B   03022.05138542  .00000121  00000-0  84994-4 0  3150
2 22803  70.9866 170.0238 0015637 116.7477 243.5246 14.16408546483379
SPOT 3 R/B 
1 22830U 93061H   03021.97713357  .00000441  00000-0  18670-3 0  1280
2 22830  98.2705  14.4144 0010206 275.0273  84.9745 14.30064259486112
COSMOS 2278 
1 23087U 94023A   03022.48297228  .00000429  00000-0  25482-3 0  9794
2 23087  71.0493 185.1040 0008954 314.9333  45.1058 14.13114107451328
COSMOS 2278 
1 23088U 94023B   03021.91929900  .00000174  00000-0  11586-3 0  9675
2 23088  70.9964 159.3943 0004216 194.1954 165.9051 14.14335976451716
RESURS O1 R 
1 23343U 94074B   03021.95566678  .00000839  00000-0  13446-3 0  7941
2 23343  97.7364  22.1112 0008391  40.5123 319.6673 14.74100942441240
COSMOS 2297 
1 23405U 94077B   03021.72789857 -.00000029  00000-0  10000-4 0   819
2 23405  70.9783 111.3753 0002817 336.5499  23.5483 14.14761074421409
